Weather History for Carmi, IL

Change the Weather History Date:

Monday, March 17, 2014

  Actual Average (KEVV) Record (KEVV)
Temperature  
Mean Temperature 38 °F 46 °F  
Max Temperature 46 °F 57 °F 80 °F (2012)
Min Temperature 29 °F 36 °F 13 °F (1900)
Degree Days  
Heating Degree Days 28 19  
Month to date heating degree days 363  
Since 1 July heating degree days 3937  
Cooling Degree Days 0 0  
Month to date cooling degree days 0  
Year to date cooling degree days 0  
Moisture  
Dew Point 27 °F    
Average Humidity 74    
Maximum Humidity 100    
Minimum Humidity 60    
Precipitation  
Precipitation 0.00 in 0.15 in 2.92 in (1951)
Month to date precipitation 2.18  
Year to date precipitation 8.45  
Snow  
Snow 0.00 in 0.00 in 8.30 in (1970)
Month to date snowfall 0.7  
Since 1 July snowfall 11.4  
Snow Depth -    
Sea Level Pressure  
Sea Level Pressure 29.90 in    
Wind  
Wind Speed 8 mph (NNE)    
Max Wind Speed 15 mph    
Max Gust Speed 18 mph    
Visibility 10 miles    
Events      
T = Trace of Precipitation, MM = Missing Value Source: NWS Daily Summary

Daily Weather History Graph

Daily Weather History Graph

Search for Another Location

Airport:

Trip Planner

Search our weather history database for the weather conditions in past years. The results will help you decide how hot, cold, wet, or windy it might be!

Date:

Astronomy

Mar. 17, 2014 Rise Set
Actual Time 7:00 AM CDT 7:01 PM CDT
Civil Twilight 6:34 AM CDT 7:27 PM CDT
Nautical Twilight 6:03 AM CDT 7:58 PM CDT
Astronomical Twilight 5:32 AM CDT 8:29 PM CDT
Moon 8:16 PM CDT (3/17) 7:17 AM CDT (3/17)
Length of Visible Light 12h 53m
Length of Day
12h 01m
Full, 99% of the Moon is Illuminated
Mar 17
Full
Mar 23
Last Quarter
Mar 30
New
Apr 7
First Quarter
Apr 15
Full

Hourly Weather History & Observations

Time (CDT) Temp. Windchill Dew Point Humidity Pressure Visibility Wind Dir Wind Speed Gust Speed Precip Events Conditions
12:15 AM 32.0 °F 22.1 °F 23.4 °F 70% 29.99 in 10.0 mi North 13.8 mph 18.4 mph N/A   Overcast
12:35 AM 31.8 °F 22.8 °F 22.6 °F 69% 29.99 in 10.0 mi North 11.5 mph - N/A   Overcast
12:55 AM 31.5 °F 20.9 °F 22.5 °F 69% 29.98 in 10.0 mi North 15.0 mph 18.4 mph N/A   Overcast
1:15 AM 31.5 °F 21.4 °F 22.3 °F 69% 29.98 in 10.0 mi North 13.8 mph - N/A   Overcast
1:35 AM 31.3 °F 21.1 °F 22.5 °F 70% 29.98 in 10.0 mi North 13.8 mph - N/A   Overcast
1:55 AM 30.9 °F 20.7 °F 21.9 °F 69% 29.98 in 10.0 mi North 13.8 mph - N/A   Overcast
2:15 AM 30.7 °F 20.4 °F 22.1 °F 70% 29.97 in 10.0 mi North 13.8 mph - N/A   Overcast
2:35 AM 30.4 °F 20.5 °F 21.7 °F 70% 29.98 in 10.0 mi North 12.7 mph - N/A   Overcast
2:55 AM 30.2 °F 19.3 °F 21.6 °F 70% 29.97 in 10.0 mi North 15.0 mph - N/A   Overcast
3:15 AM 30.0 °F 20.5 °F 21.9 °F 72% 29.94 in 10.0 mi North 11.5 mph - N/A   Overcast
3:35 AM 29.8 °F 19.3 °F 21.6 °F 71% 29.93 in 10.0 mi North 13.8 mph - N/A   Overcast
3:55 AM 29.8 °F 19.8 °F 21.7 °F 72% 29.93 in 10.0 mi NNE 12.7 mph - N/A   Overcast
4:15 AM 29.7 °F 20.1 °F 21.9 °F 73% 29.94 in 10.0 mi NNE 11.5 mph - N/A   Overcast
4:40 AM 29.7 °F 18.6 °F 21.9 °F 73% 29.94 in 10.0 mi North 15.0 mph - N/A   Overcast
4:55 AM 29.7 °F 19.1 °F 21.9 °F 73% 29.94 in 10.0 mi NNE 13.8 mph - N/A   Overcast
5:15 AM 29.3 °F 20.8 °F 21.6 °F 73% 29.93 in 10.0 mi NNE 9.2 mph - N/A   Overcast
5:35 AM 29.1 °F 21.3 °F 21.0 °F 72% 29.92 in 10.0 mi NNE 8.1 mph - N/A   Overcast
5:55 AM 29.3 °F 20.8 °F 21.2 °F 72% 29.92 in 10.0 mi North 9.2 mph - N/A   Overcast
6:15 AM 29.3 °F 20.8 °F 21.9 °F 74% 29.93 in 10.0 mi North 9.2 mph - N/A   Overcast
6:35 AM 29.3 °F 20.8 °F 21.4 °F 72% 29.92 in 10.0 mi North 9.2 mph - N/A   Overcast
6:55 AM 29.3 °F 20.8 °F 21.7 °F 73% 29.93 in 10.0 mi North 9.2 mph - N/A   Overcast
7:15 AM 29.3 °F 20.8 °F 21.6 °F 73% 29.94 in 10.0 mi North 9.2 mph - N/A   Overcast
7:35 AM 29.3 °F 21.5 °F 21.6 °F 73% 29.94 in 10.0 mi North 8.1 mph - N/A   Overcast
7:55 AM 29.3 °F 24.3 °F 21.7 °F 73% 29.95 in 10.0 mi North 4.6 mph - N/A   Overcast
8:15 AM 29.3 °F 24.3 °F 21.6 °F 73% 29.95 in 10.0 mi North 4.6 mph - N/A   Overcast
8:35 AM 29.7 °F 24.7 °F 22.1 °F 73% 29.96 in 10.0 mi North 4.6 mph - N/A   Overcast
8:55 AM 29.8 °F 26.3 °F 22.5 °F 74% 29.95 in 10.0 mi North 3.5 mph - N/A   Overcast
9:15 AM 30.2 °F 24.3 °F 22.8 °F 74% 29.95 in 10.0 mi North 5.8 mph - N/A   Overcast
9:35 AM 30.7 °F 24.9 °F 22.8 °F 72% 29.95 in 10.0 mi North 5.8 mph - N/A   Overcast
9:55 AM 30.7 °F 24.9 °F 23.4 °F 74% 29.94 in 10.0 mi North 5.8 mph - N/A   Overcast
10:15 AM 30.9 °F 27.5 °F 23.4 °F 74% 29.94 in 10.0 mi North 3.5 mph - N/A   Overcast
10:35 AM 31.6 °F 26.0 °F 23.5 °F 72% 29.94 in 10.0 mi North 5.8 mph - N/A   Overcast
10:55 AM 32.2 °F 27.7 °F 24.8 °F 74% 29.93 in 10.0 mi North 4.6 mph - N/A   Overcast
11:15 AM 32.9 °F 29.8 °F 25.7 °F 75% 29.94 in 10.0 mi North 3.5 mph - N/A   Overcast
11:35 AM 33.6 °F 30.6 °F 26.1 °F 74% 29.93 in 10.0 mi ENE 3.5 mph - N/A   Overcast
11:55 AM 33.6 °F - 25.3 °F 72% 29.93 in 10.0 mi Calm Calm - N/A   Overcast
12:15 PM 34.3 °F 30.2 °F 26.2 °F 72% 29.93 in 10.0 mi East 4.6 mph - N/A   Overcast
12:35 PM 35.1 °F 31.0 °F 27.7 °F 74% 29.92 in 10.0 mi North 4.6 mph - N/A   Overcast
12:55 PM 36.0 °F 33.3 °F 27.9 °F 72% 29.91 in 10.0 mi ENE 3.5 mph - N/A   Overcast
1:15 PM 36.3 °F - 28.0 °F 72% 29.90 in 10.0 mi Calm Calm - N/A   Overcast
1:35 PM 37.8 °F 34.2 °F 29.3 °F 72% 29.89 in 10.0 mi NNE 4.6 mph - N/A   Overcast
1:55 PM 38.8 °F 35.4 °F 29.7 °F 70% 29.88 in 10.0 mi ENE 4.6 mph - N/A   Overcast
2:15 PM 39.9 °F 37.8 °F 30.6 °F 69% 29.87 in 10.0 mi North 3.5 mph - N/A   Overcast
2:35 PM 41.0 °F 38.0 °F 31.3 °F 68% 29.86 in 10.0 mi NNE 4.6 mph - N/A   Overcast
2:55 PM 41.2 °F 39.2 °F 30.7 °F 66% 29.85 in 10.0 mi NE 3.5 mph - N/A   Scattered Clouds
3:15 PM 43.0 °F 40.3 °F 31.8 °F 65% 29.84 in 10.0 mi North 4.6 mph - N/A   Clear
3:35 PM 43.3 °F - 31.6 °F 63% 29.83 in 10.0 mi Calm Calm - N/A   Clear
3:55 PM 44.8 °F - 32.4 °F 62% 29.84 in 10.0 mi Calm Calm - N/A   Clear
4:15 PM 44.2 °F - 32.2 °F 63% 29.85 in 10.0 mi Calm Calm - N/A   Clear
4:35 PM 44.6 °F - 32.0 °F 61% 29.85 in 10.0 mi Calm Calm - N/A   Clear
4:55 PM 45.5 °F - 32.4 °F 60% 29.84 in 10.0 mi Calm Calm - N/A   Clear
5:15 PM 45.5 °F - 32.5 °F 61% 29.83 in 10.0 mi Calm Calm - N/A   Clear
5:35 PM 46.0 °F 44.8 °F 33.1 °F 61% 29.84 in 10.0 mi ESE 3.5 mph - N/A   Clear
5:55 PM 44.8 °F 41.6 °F 33.8 °F 65% 29.82 in 10.0 mi SE 5.8 mph - N/A   Clear
6:15 PM 44.1 °F - 33.3 °F 66% 29.82 in 10.0 mi Calm Calm - N/A   Clear
6:35 PM 43.9 °F - 34.0 °F 68% 29.84 in 10.0 mi Calm Calm - N/A   Clear
6:55 PM 43.2 °F - 34.7 °F 72% 29.84 in 10.0 mi Calm Calm - N/A   Clear
7:15 PM 42.4 °F - 33.3 °F 70% 29.84 in 10.0 mi Calm Calm - N/A   Clear
7:35 PM 40.5 °F - 35.8 °F 83% 29.84 in 10.0 mi Calm Calm - N/A   Clear
7:55 PM 39.6 °F - 34.3 °F 82% 29.84 in 10.0 mi Calm Calm - N/A   Clear
8:15 PM 37.8 °F - 34.0 °F 86% 29.85 in 10.0 mi Calm Calm - N/A   Clear
8:35 PM 38.8 °F - 34.2 °F 83% 29.86 in 10.0 mi Calm Calm - N/A   Clear
8:55 PM 37.6 °F 35.1 °F 34.2 °F 87% 29.86 in 10.0 mi ESE 3.5 mph - N/A   Clear
9:15 PM 36.0 °F 33.3 °F 34.0 °F 93% 29.87 in 10.0 mi ESE 3.5 mph - N/A   Clear
9:35 PM 34.3 °F 27.7 °F 33.4 °F 97% 29.86 in 7.0 mi ESE 8.1 mph - N/A   Clear
9:55 PM 35.1 °F 31.0 °F 34.2 °F 97% 29.86 in 7.0 mi SE 4.6 mph - N/A   Clear
10:35 PM 34.5 °F 31.6 °F 33.8 °F 97% 29.87 in 7.0 mi SE 3.5 mph - N/A   Clear
10:55 PM 34.2 °F - 33.8 °F 99% 29.87 in 7.0 mi Calm Calm - N/A   Clear
11:15 PM 33.3 °F 30.2 °F 32.9 °F 99% 29.87 in 7.0 mi SE 3.5 mph - N/A   Clear
11:35 PM 32.2 °F 27.7 °F 32.2 °F 100% 29.87 in 5.0 mi SE 4.6 mph - N/A   Clear
11:55 PM 32.2 °F 28.9 °F 32.2 °F 100% 29.87 in 7.0 mi SE 3.5 mph - N/A   Clear